Regional Weather Roundup
Issued by NWS

Home | Current Version | Previous Version | Graphics & Text | Print | Product List | Glossary Off
Versions: 1 2 3 4 5 6 7 8 9 10 11 12 13 14 15 16 17 18 19 20 21 22 23 24 25 26 27 28 29 30 31 32 33 34 35 36 37 38 39 40 41 42 43 44 45 46 47 48 49 50

000
ASUS43 KMKX 280611
RWRWI

WISCONSIN REGIONAL WEATHER ROUNDUP
NATIONAL WEATHER SERVICE MILWAUKEE/SULLIVAN WI
100 AM CDT SAT MAY 28 2016

NOTE: "FAIR" INDICATES FEW OR NO CLOUDS BELOW 12,000 FEET WITH NO
SIGNIFICANT WEATHER AND/OR OBSTRUCTIONS TO VISIBILITY.

WIZ001-002-006>008-014>016-023>028-280700-
NORTHWEST WISCONSIN

CITY           SKY/WX    TMP DP  RH WIND       PRES   REMARKS
SUPERIOR ARPT  CLOUDY    47  47  99 NE6G16    29.81R
6HR MIN TEMP:  45; 6HR MAX TEMP:  49; 6HR PCP:  0.07;

ASHLAND        FOG       45  44  97 N8        29.80S VSB 1/2
6HR MIN TEMP:  45; 6HR MAX TEMP:  49; 6HR PCP:  0.06;

HAYWARD        CLOUDY    56  55  97 NE3       29.76S
6HR MIN TEMP:  55; 6HR MAX TEMP:  56; 6HR PCP:  0.44;

SIREN          CLOUDY    56  54  93 N3        29.78R
6HR MIN TEMP:  56; 6HR MAX TEMP:  62;

CUMBERLAND     CLOUDY    57  55  94 CALM      29.77S
RICE LAKE      CLOUDY    59  58  94 CALM      29.78S FOG
6HR MIN TEMP:  59; 6HR MAX TEMP:  62; 6HR PCP:  0.11;

CHETEK         CLOUDY    61  61 100 CALM      29.76F FOG
6HR MIN TEMP:  60; 6HR MAX TEMP:  62; 6HR PCP:  0.05;

LADYSMITH      CLOUDY    66  65  94 SE3       29.77F
6HR MIN TEMP:  66; 6HR MAX TEMP:  67; 6HR PCP:  0.36;

EAU CLAIRE     CLOUDY    63  63 100 CALM      29.74S FOG
6HR MIN TEMP:  63; 6HR MAX TEMP:  69;

MENOMONIE      CLOUDY    63  63  99 CALM      29.76S FOG
6HR MIN TEMP:  63; 6HR MAX TEMP:  65;

NEW RICHMOND   CLOUDY    62  61  97 NE5       29.77S
6HR MIN TEMP:  62; 6HR MAX TEMP:  68;

OSCEOLA        CLOUDY    62  62 100 CALM      29.79F
6HR MIN TEMP:  62; 6HR MAX TEMP:  66;

$$

WIZ003>005-009-010-017-018-280700-
NORTH CENTRAL WISCONSIN

CITY           SKY/WX    TMP DP  RH WIND       PRES   REMARKS
MANITOWISH WTR NOT AVBL
ARBOR VITAE    CLOUDY    65  63  93 S7        29.80S
6HR MIN TEMP:  65; 6HR MAX TEMP:  69;

WOODRUFF       CLOUDY    65  63  93 S7        29.80S
6HR MIN TEMP:  65; 6HR MAX TEMP:  69;

RHINELANDER    CLOUDY    65  63  93 S8        29.81S
6HR MIN TEMP:  64; 6HR MAX TEMP:  68; 6HR PCP:  0.01;

EAGLE RIVER    DRIZZLE   64  63  95 S7        29.81S
LAND O LAKES   CLOUDY    65  62  91 SE6       29.81F
6HR MIN TEMP:  65; 6HR MAX TEMP:  68;

PHILLIPS       CLOUDY    65  63  93 S7        29.77F
6HR MIN TEMP:  65; 6HR MAX TEMP:  67;

TOMAHAWK       CLOUDY    65  63  94 CALM      29.80S
6HR MIN TEMP:  63; 6HR MAX TEMP:  68;

MEDFORD        CLOUDY    65  65 100 SE6       29.77F FOG
6HR MIN TEMP:  64; 6HR MAX TEMP:  68;

MERRILL        LGT RAIN  66  66 100 S5        29.80S
$$

WIZ029-030-035-036-043>047-280700-
CENTRAL WISCONSIN

CITY           SKY/WX    TMP DP  RH WIND       PRES   REMARKS
WAUSAU         LGT RAIN  68  65  90 S8        29.77F
6HR MIN TEMP:  66; 6HR MAX TEMP:  68; 6HR PCP:  0.17;

MOSINEE        LGT RAIN  64  64 100 S7        29.80S
MARSHFIELD     CLOUDY    68  65  90 S8        29.77F
6HR MIN TEMP:  67; 6HR MAX TEMP:  70; 6HR PCP: TRACE;

STEVENS POINT  CLOUDY    65  65  99 S5        29.80F
6HR MIN TEMP:  65; 6HR MAX TEMP:  66; 6HR PCP:  0.08;

WAUPACA        CLOUDY    69  69  99 CALM      29.79F FOG
6HR MIN TEMP:  69; 6HR MAX TEMP:  71; 6HR PCP:  0.02;

WAUTOMA        CLOUDY    66  66 100 CALM      29.79F FOG
6HR MIN TEMP:  66; 6HR MAX TEMP:  68;

WISC RAPIDS    CLOUDY    67  65  93 SE3       29.78F
6HR MIN TEMP:  67; 6HR MAX TEMP:  70; 6HR PCP:  0.01;

CAMP DOUGLAS   PTCLDY    66 N/A N/A SE6       29.76F
6HR MIN TEMP:  66; 6HR MAX TEMP:  71;

$$

WIZ011>013-019>022-031-037>040-048>050-280700-
NORTHEAST WISCONSIN

CITY           SKY/WX    TMP DP  RH WIND       PRES   REMARKS
ANTIGO         LGT RAIN  64  64 100 SE9       29.82S VSB 1/2
6HR MIN TEMP:  63; 6HR MAX TEMP:  64; 6HR PCP:  0.23;

SHAWANO        CLOUDY    67  65  94 CALM      29.81F FOG
6HR MIN TEMP:  67; 6HR MAX TEMP:  69; 6HR PCP:  0.17;

OCONTO         CLOUDY   N/A N/A N/A CALM      29.81F
                                      6HR PCP:  0.46;

STURGEON BAY   NOT AVBL
GREEN BAY      MOCLDY    66  64  93 S5        29.81
6HR MIN TEMP:  65; 6HR MAX TEMP:  69;

MANITOWOC      CLOUDY    58  57  97 SE5       29.84F FOG
6HR MIN TEMP:  57; 6HR MAX TEMP:  61; 6HR PCP:  0.14;

APPLETON       MOCLDY    66  66 100 S9        29.79F FOG
CLINTONVILLE   CLOUDY    64  64 100 SE5       29.80F FOG
OSHKOSH        MOCLDY    67  65  93 S6        29.80F FOG
6HR MIN TEMP:  67; 6HR MAX TEMP:  68; 6HR PCP:  0.20;

$$

WIZ032>034-041-042-053>061-280700-
SOUTHWEST WISCONSIN

CITY           SKY/WX    TMP DP  RH WIND       PRES   REMARKS
LA CROSSE      CLOUDY    67  66  97 E3        29.73F
6HR MIN TEMP:  67; 6HR MAX TEMP:  73; 6HR PCP: TRACE;

SPARTA         CLOUDY    63  63 100 CALM      29.76F
6HR MIN TEMP:  63; 6HR MAX TEMP:  70;

VIROQUA        CLOUDY    65  65  98 SE3       29.76F
6HR MIN TEMP:  65; 6HR MAX TEMP:  72;

BOSCOBEL       CLOUDY    66  65  96 NE3       29.74F
6HR MIN TEMP:  66; 6HR MAX TEMP:  73;

PRAIRIE DU CHI CLOUDY    66  64  94 CALM      29.74S
6HR MIN TEMP:  66; 6HR MAX TEMP:  69;

PLATTEVILLE    CLOUDY    70  68  94 SE8       29.76F
6HR MIN TEMP:  70; 6HR MAX TEMP:  74;

$$

WIZ056-057-062-063-064-067-068-280700-
SOUTH CENTRAL WISCONSIN

CITY           SKY/WX    TMP DP  RH WIND       PRES   REMARKS
REEDSBURG      MOCLDY    68  67  96 SE3       29.77F
6HR MIN TEMP:  68; 6HR MAX TEMP:  72;

BARABOO/DELLS  MOCLDY    68  65  89 S3        29.78F
6HR MIN TEMP:  68; 6HR MAX TEMP:  72;

LONE ROCK      MOCLDY    70  66  87 E6        29.76F
6HR MIN TEMP:  70; 6HR MAX TEMP:  76;

MINERAL POINT  CLOUDY    70  68  94 SE7       29.77F
MADISON        MOCLDY    72  66  81 S12       29.78F
6HR MIN TEMP:  70; 6HR MAX TEMP:  74;

MIDDLETON      MOCLDY    73  67  82 S10       29.79F
6HR MIN TEMP:  71; 6HR MAX TEMP:  75;

WATERTOWN      MOCLDY    69  68  97 S7        29.81F
6HR MIN TEMP:  68; 6HR MAX TEMP:  70;

MONROE         CLOUDY    70  64  83 SE14G20   29.79F
JANESVILLE     LGT RAIN  70  66  88 S12       29.81S
$$

WIZ051-052-058>065-066-070>072-280700-
SOUTHEAST WISCONSIN

CITY           SKY/WX    TMP DP  RH WIND       PRES   REMARKS
MILWAUKEE      CLOUDY    70  65  84 S12G21    29.84S
6HR MIN TEMP:  67; 6HR MAX TEMP:  70; 6HR PCP: TRACE;

WAUKESHA       LGT RAIN  68  63  83 S9        29.85S
MILWAUKEE/TIMM DRIZZLE   68  63  83 S9        29.84S
RACINE         MOCLDY    67  64  90 S12       29.87F
6HR MIN TEMP:  66; 6HR MAX TEMP:  69; 6HR PCP:  0.01;

BURLINGTON     CLOUDY    67  64  89 S7        29.84S
6HR MIN TEMP:  67; 6HR MAX TEMP:  71;

KENOSHA        CLOUDY    69  65  86 S10       29.86S
6HR MIN TEMP:  69; 6HR MAX TEMP:  72; 6HR PCP:  0.01;

FOND DU LAC    MOCLDY    69  66  90 S10       29.80F
6HR MIN TEMP:  68; 6HR MAX TEMP:  70; 6HR PCP:  0.03;

SHEBOYGAN      CLOUDY    64  61  90 S10       29.83F FOG
6HR MIN TEMP:  62; 6HR MAX TEMP:  66; 6HR PCP:  0.06;

WEST BEND      CLOUDY    66  64  94 S7        29.83F
JUNEAU         CLOUDY    68  66  94 SE10      29.82F
6HR MIN TEMP:  67; 6HR MAX TEMP:  69;

$$

LSZ147-162-280700-
LAKE SUPERIOR

STATION/POSITION TIME  TEMP    WIND        PRES    WAVE
                       AIR SEA DIR/SP/G            HT/PER
                 (UTC) (F)     (DEG/KT/KT) (MB)    (FT/S)
W MID LAKE BUOY  0550   41 38   40/ 17/ 21 1009.5F   3/ 4
DEVILS ISLAND    0600   43      80/ 14/ 16 1009.5R
SAXON HARBOR     0540   46      CALM  /  2 1008.5S
$$

LMZ867-665-643>646-280700-
LAKE MICHIGAN

STATION/POSITION TIME  TEMP    WIND        PRES    WAVE
                       AIR SEA DIR/SP/G            HT/PER
                 (UTC) (F)     (DEG/KT/KT) (MB)    (FT/S)
CHAMBERS ISLAND  0500   64     120/  7/ 11 1010.8S
N MID LAKE BUOY  0550   53 47  140/ 10/ 12 1011.1F   1
NORTHPORT PIER   0500   57     150/  9/ 14 1011.2S
SISTER BAY       050C1F1C2F2C3F3C4F4C5F5C6F6C7F7C8M1C9M2Ca!



USA.gov is the U.S. government's official web portal to all federal, state and local government web resources and services.